Location: ????????
(48.4751°N, 37.6926°E)
Time: 21:07:54
(UTC+00:00)

Cosmos 1818 - Pass Details

Date: 20 January 2021
Orbit: 773 x 800 km, 65.0° (Epoch: 02 March)

Event Time Altitude Azimuth Distance (km) Brightness Sun altitude
Rises 16:45:31 0° 224° (SW) 3,269 7.4 -25.5°
Reaches altitude 10° 16:47:56 10° 227° (SW) 2,348 6.6 -25.9°
Maximum altitude 16:53:20 70° 311° (NW) 847 3.7 -26.8°
Enters shadow 16:54:12 59° 4° (N) 921 3.8 -26.9°
